Weather reports worldwide

Advertisment
Rockport, tx, United States of America (2074832): temperature & dewpoint: 05.07.2020 09:00:00 - 11.07.2020 09:00:00 (CDT)Rockport, tx, United States of America (2074832): wind speed: 05.07.2020 09:00:00 - 11.07.2020 09:00:00 (CDT)Rockport, tx, United States of America (2074832): wind direction: 05.07.2020 09:00:00 - 11.07.2020 09:00:00 (CDT)Rockport, tx, United States of America (2074832): reduced air pressure: 05.07.2020 09:00:00 - 11.07.2020 09:00:00 (CDT)Rockport, tx, United States of America (2074832): visibility: 05.07.2020 09:00:00 - 11.07.2020 09:00:00 (CDT)
Date & Time tt [°C] td [°C] ff [km/h] ff [kn] dd ppp [hPa] vv [km]
11.07.2020 09:00:00 30,0 25,0 9 5 - 1017,1 11
11.07.2020 08:00:00 28,3 25,0 11 6 S 1016,7 11
11.07.2020 07:00:00 27,8 25,0 9 5 S 1015,8 10
11.07.2020 06:00:00 27,8 24,4 11 6 S 1015,2 13
11.07.2020 05:00:00 27,8 24,4 8 4 - 1015,3 13
11.07.2020 04:00:00 27,8 25,0 13 7 S 1015,4 13
11.07.2020 03:00:00 28,3 24,4 16 9 S 1015,6 15
11.07.2020 02:00:00 28,3 24,4 13 7 S 1015,9 15
11.07.2020 01:00:00 28,3 24,4 18 10 S 1016,3 15
11.07.2020 00:00:00 28,3 24,4 9 5 S 1016,8 15
10.07.2020 23:00:00 28,3 25,0 11 6 SSE 1016,0 15
10.07.2020 22:00:00 28,3 25,0 13 7 SSE 1015,1 15
10.07.2020 21:00:00 28,9 25,0 21 11 SSE 1015,0 15
10.07.2020 20:00:00 29,4 25,0 16 9 SSE 1015,3 13
10.07.2020 19:00:00 30,6 25,0 24 13 SE 1015,2 13
10.07.2020 18:00:00 31,7 25,0 22 12 SSE 1015,5 15
10.07.2020 17:00:00 32,2 25,6 24 13 SSE 1015,6 13
10.07.2020 16:00:00 32,8 25,6 26 14 SE 1016,1 13
10.07.2020 15:00:00 32,8 25,6 28 15 SSE 1016,0 13
10.07.2020 14:00:00 33,3 26,1 28 15 SE 1015,9 13
10.07.2020 13:00:00 33,3 26,1 24 13 SE 1016,1 13
10.07.2020 12:00:00 32,8 26,1 22 12 SSE 1016,1 11
10.07.2020 11:00:00 31,7 26,1 18 10 SSE 1016,1 11
10.07.2020 10:00:00 30,6 25,6 15 8 S 1015,9 11
10.07.2020 09:00:00 30,6 26,1 15 8 S 1016,0 11
10.07.2020 08:00:00 28,9 26,1 13 7 S 1015,1 10
10.07.2020 07:00:00 28,3 25,6 15 8 SSE 1014,3 10
10.07.2020 06:00:00 27,8 25,0 13 7 SSE 1013,9 11
10.07.2020 05:00:00 28,3 25,0 15 8 SSE 1013,6 13
10.07.2020 04:00:00 28,3 25,0 15 8 SSE 1013,4 13
10.07.2020 03:00:00 28,3 25,0 16 9 SSE 1013,3 13
10.07.2020 02:00:00 28,3 25,0 13 7 SSE 1013,9 13
10.07.2020 01:00:00 28,3 25,6 18 10 SSE 1014,3 13
10.07.2020 00:00:00 28,3 25,0 9 5 SSE 1014,0 13
09.07.2020 23:00:00 28,9 25,0 15 8 SSE 1012,8 13
09.07.2020 22:00:00 28,9 25,0 18 10 SSE 1012,4 13
09.07.2020 21:00:00 28,9 24,4 22 12 SSE 1011,9 13
09.07.2020 20:00:00 29,4 24,4 29 16 SSE 1011,6 11
09.07.2020 19:00:00 30,6 24,4 26 14 SE 1011,6 11
09.07.2020 18:00:00 31,7 24,4 31 17 SSE 1011,6 11
09.07.2020 17:00:00 32,2 24,4 29 16 SE 1011,9 13
09.07.2020 16:00:00 32,8 24,4 29 16 SSE 1012,0 13
09.07.2020 15:00:00 33,3 24,4 26 14 SSE 1012,4 13
09.07.2020 14:00:00 32,8 24,4 24 13 SSE 1012,9 11
09.07.2020 13:00:00 32,2 24,4 24 13 SSE 1013,1 11
09.07.2020 12:00:00 31,7 23,9 22 12 S 1013,3 11
09.07.2020 11:00:00 31,1 24,4 24 13 SSE 1013,0 11
09.07.2020 10:00:00 30,6 24,4 22 12 SSE 1012,7 11
09.07.2020 09:00:00 30,0 25,6 18 10 SSE 1012,6 10
09.07.2020 08:00:00 28,9 25,6 13 7 S 1012,2 8
09.07.2020 07:00:00 28,3 25,6 15 8 S 1011,6 6
09.07.2020 06:00:00 28,3 25,6 15 8 S 1011,6 8
09.07.2020 05:00:00 28,3 25,6 13 7 S 1011,4 8
09.07.2020 04:00:00 28,3 25,6 15 8 S 1011,7 10
09.07.2020 03:00:00 28,3 25,6 22 12 S 1011,9 10
09.07.2020 02:00:00 28,9 26,1 16 9 SSE 1012,3 10
09.07.2020 01:00:00 28,9 26,1 15 8 SSE 1012,7 10
09.07.2020 00:00:00 28,9 26,1 16 9 SSE 1012,6 10
08.07.2020 23:00:00 28,9 25,6 21 11 SSE 1012,3 10
08.07.2020 22:00:00 28,9 25,6 21 11 SSE 1011,8 10
08.07.2020 21:00:00 28,9 25,6 22 12 SSE 1011,3 10
08.07.2020 20:00:00 29,4 25,0 24 13 SSE 1011,0 10
08.07.2020 19:00:00 30,6 25,0 24 13 SSE 1010,9 10
08.07.2020 18:00:00 31,7 25,0 29 16 SSE 1011,0 10
08.07.2020 17:00:00 32,2 25,0 28 15 SE 1011,6 10
08.07.2020 16:00:00 32,8 25,0 18 10 SSE 1012,1 10
08.07.2020 15:00:00 32,2 25,0 18 10 SSE 1012,6 10
08.07.2020 14:00:00 31,7 25,0 22 12 SSE 1013,4 10
08.07.2020 13:00:00 32,2 25,0 18 10 S 1013,6 8
08.07.2020 12:00:00 31,1 24,4 18 10 S 1013,8 6
08.07.2020 11:00:00 31,1 25,0 18 10 SSE 1013,8 6
08.07.2020 10:00:00 30,0 25,0 13 7 SSE 1013,9 6
08.07.2020 09:00:00 28,9 24,4 15 8 S 1013,6 6
08.07.2020 08:00:00 28,3 24,4 16 9 S 1013,1 8
08.07.2020 07:00:00 28,3 25,0 13 7 S 1013,0 8
08.07.2020 06:00:00 28,3 25,0 15 8 S 1012,8 10
08.07.2020 05:00:00 28,3 25,0 21 11 S 1012,7 10
08.07.2020 04:00:00 28,3 25,0 18 10 S 1012,4 10
08.07.2020 03:00:00 28,3 25,6 15 8 S 1012,2 10
08.07.2020 02:00:00 28,3 25,6 15 8 SSE 1012,7 10
08.07.2020 01:00:00 28,9 25,6 26 14 SSE 1013,0 10
08.07.2020 00:00:00 28,9 25,6 18 10 SSE 1012,9 10
07.07.2020 23:00:00 28,9 25,6 15 8 SSE 1013,1 10
07.07.2020 22:00:00 28,9 25,6 18 10 SSE 1012,2 10
07.07.2020 21:00:00 29,4 25,6 22 12 SSE 1011,8 10
07.07.2020 20:00:00 30,0 25,6 21 11 SSE 1011,5 8
07.07.2020 19:00:00 30,6 25,0 22 12 SSE 1011,7 10
07.07.2020 18:00:00 31,1 25,0 28 15 SSE 1011,7 10
07.07.2020 17:00:00 32,2 25,0 29 16 SSE 1011,7 10
07.07.2020 16:00:00 32,8 25,0 24 13 SE 1012,9 10
07.07.2020 15:00:00 33,3 24,4 18 10 SSE 1013,5 10
07.07.2020 14:00:00 33,3 23,9 18 10 SSE 1014,1 10
07.07.2020 13:00:00 33,3 23,9 16 9 S 1014,4 10
07.07.2020 12:00:00 32,2 23,9 21 11 SSE 1014,7 10
07.07.2020 11:00:00 31,1 23,9 15 8 S 1014,6 10
07.07.2020 10:00:00 30,6 23,9 16 9 S 1014,1 10
07.07.2020 09:00:00 29,4 25,0 11 6 S 1014,2 10
07.07.2020 08:00:00 28,3 25,0 18 10 S 1013,8 10
07.07.2020 07:00:00 28,3 25,0 13 7 S 1013,3 10
07.07.2020 06:00:00 28,3 25,0 16 9 S 1013,1 11
07.07.2020 05:00:00 28,3 25,6 18 10 S 1012,7 11
07.07.2020 04:00:00 28,3 25,6 15 8 S 1012,8 11
07.07.2020 03:00:00 28,3 25,6 15 8 S 1012,7 13
07.07.2020 02:00:00 28,3 25,6 16 9 S 1013,2 13
07.07.2020 01:00:00 28,3 25,6 18 10 SSE 1013,2 13
07.07.2020 00:00:00 28,3 25,0 22 12 SSE 1012,7 13
06.07.2020 23:00:00 28,3 25,0 24 13 SSE 1012,3 15
06.07.2020 22:00:00 28,9 25,0 24 13 SSE 1012,0 13
06.07.2020 21:00:00 28,9 25,0 18 10 SSE 1011,2 13
06.07.2020 20:00:00 29,4 24,4 29 16 SSE 1011,0 11
06.07.2020 19:00:00 30,6 25,0 22 12 SE 1011,2 13
06.07.2020 18:00:00 31,7 25,0 26 14 SE 1011,7 13
06.07.2020 17:00:00 32,2 25,0 24 13 SE 1011,9 11
06.07.2020 16:00:00 33,3 24,4 18 10 SSE 1012,2 11
06.07.2020 15:00:00 32,8 24,4 21 11 S 1012,6 11
06.07.2020 14:00:00 32,8 24,4 18 10 S 1013,1 11
06.07.2020 13:00:00 32,8 25,0 21 11 SSE 1013,3 13
06.07.2020 12:00:00 32,2 24,4 21 11 S 1013,3 15
06.07.2020 11:00:00 31,1 24,4 24 13 S 1012,7 15
06.07.2020 10:00:00 31,1 25,0 22 12 S 1012,2 15
06.07.2020 09:00:00 29,4 24,4 21 11 S 1012,1 13
06.07.2020 08:00:00 28,3 25,0 15 8 S 1011,6 11
06.07.2020 07:00:00 27,8 24,4 15 8 S 1011,2 11
06.07.2020 06:00:00 27,8 24,4 18 10 S 1011,2 13
06.07.2020 05:00:00 27,8 24,4 11 6 S 1011,0 13
06.07.2020 04:00:00 28,3 24,4 11 6 SSW 1010,6 11
06.07.2020 03:00:00 27,8 24,4 18 10 S 1010,4 10
06.07.2020 02:00:00 28,3 24,4 22 12 S 1010,8 10
06.07.2020 01:00:00 28,3 25,0 18 10 S 1011,0 10
06.07.2020 00:00:00 28,3 24,4 21 11 S 1010,8 10
05.07.2020 23:00:00 28,3 24,4 16 9 S 1010,1 11
05.07.2020 22:00:00 28,3 25,0 18 10 SSE 1009,9 10
05.07.2020 21:00:00 28,3 24,4 15 8 SSE 1009,3 11
05.07.2020 20:00:00 28,9 24,4 21 11 SSE 1009,2 10
05.07.2020 19:00:00 30,0 24,4 22 12 S 1009,2 11
05.07.2020 18:00:00 31,1 25,0 24 13 SSE 1009,4 13
05.07.2020 17:00:00 32,2 25,0 16 9 SSE 1009,8 15
05.07.2020 16:00:00 32,8 24,4 16 9 S 1010,2 15
05.07.2020 15:00:00 32,2 24,4 18 10 S 1010,8 15
05.07.2020 14:00:00 32,2 24,4 24 13 SSE 1011,2 16
05.07.2020 13:00:00 31,7 23,9 18 10 SSE 1012,2 16
05.07.2020 12:00:00 31,7 23,9 21 11 SSE 1012,7 16
05.07.2020 11:00:00 30,6 23,9 22 12 S 1012,9 16
05.07.2020 10:00:00 29,4 23,9 18 10 S 1012,7 15
05.07.2020 09:00:00 28,3 23,9 13 7 SSW 1012,5 15

tt = temperature
td = dewpoint
ff = wind speed
dd = wind direction
ppp = reduced air pressure
vv = visibility

Next stations